Edwards AFB North Base, CA

1:44 PM PST on December 05, 2019 (GMT -0800)
Edwards AFB North Base

Weather History for K9L2 - May, 2019

Change the Weather History Date:

Wednesday, May 1, 2019

  Actual Average (KEDW) Record (KEDW)
Temperature  
Mean Temperature 58 °F -  
Max Temperature 74 °F 76 °F 91 °F (2006)
Min Temperature 43 °F 48 °F 35 °F (2011)
Degree Days  
Heating Degree Days 6    
Growing Degree Days 8 (Base 50)    
Moisture  
Dew Point 37 °F    
Average Humidity 49    
Maximum Humidity 89    
Minimum Humidity 17    
Precipitation  
Precipitation 0.00 in - - ()
Sea Level Pressure  
Sea Level Pressure 29.93 in    
Wind  
Wind Speed 9 mph (SSW)    
Max Wind Speed 16 mph    
Max Gust Speed 26 mph    
Visibility 9 miles    
Events      
Averages and records for this station are not official NWS values.
T = Trace of Precipitation, MM = Missing Value Source: NWS Daily Summary

Daily Weather History Graph

Daily Weather History Graph

Search for Another Location

Airport or City:

Astronomy

May. 01, 2019 Rise Set
Actual Time 6:00 AM PDT 7:36 PM PDT
Civil Twilight 5:33 AM PDT 8:03 PM PDT
Nautical Twilight 5:01 AM PDT 8:36 PM PDT
Astronomical Twilight 4:27 AM PDT 9:10 PM PDT
Moon 4:36 AM PDT (5/1) 4:40 PM PDT (5/1)
Length of Visible Light 14h 30m
Length of Day
13h 36m
Waning Crescent, 10% of the Moon is Illuminated
May 1
Waning Crescent
May 4
New
May 11
First Quarter
May 18
Full
May 26
Last Quarter

Hourly Weather History & Observations

Time (PDT) Temp. Windchill Dew Point Humidity Pressure Visibility Wind Dir Wind Speed Gust Speed Precip Events Conditions
12:58 AM 50.5 °F - 43.2 °F 76% 29.88 in 10.0 mi SSW 16.1 mph 26.5 mph N/A   Clear
1:58 AM 50.9 °F - 43.0 °F 74% 29.88 in 10.0 mi SW 15.0 mph - N/A   Clear
2:58 AM 49.6 °F - 42.6 °F 77% 29.89 in 10.0 mi SSW 10.4 mph - N/A   Clear
3:58 AM 48.0 °F - 42.3 °F 80% 29.91 in 10.0 mi South 9.2 mph - N/A   Clear
4:58 AM 46.4 °F 45.2 °F 41.4 °F 83% 29.94 in 10.0 mi South 3.5 mph - N/A   Clear
5:58 AM 43.2 °F 41.5 °F 39.2 °F 86% 29.94 in 10.0 mi North 3.5 mph - N/A   Clear
6:58 AM 43.5 °F 41.9 °F 40.5 °F 89% 29.98 in 10.0 mi NNE 3.5 mph - N/A   Clear
7:58 AM 49.6 °F - 42.1 °F 75% 30.00 in 10.0 mi North 3.5 mph - N/A   Clear
8:58 AM 56.7 °F - 42.8 °F 60% 30.00 in 9.0 mi ENE 4.6 mph - N/A   Clear
9:58 AM 61.2 °F - 39.9 °F 46% 30.00 in 10.0 mi Calm Calm - N/A   Clear
10:58 AM 66.0 °F - 37.2 °F 35% 29.99 in 10.0 mi Calm Calm - N/A   Clear
11:58 AM 70.7 °F - 29.8 °F 22% 29.97 in 9.0 mi ENE 8.1 mph 17.3 mph N/A   Clear
12:58 PM 71.4 °F - 31.6 °F 23% 29.95 in 9.0 mi SSE 6.9 mph - N/A   Clear
1:58 PM 71.8 °F - 31.3 °F 22% 29.94 in 9.0 mi SSE 5.8 mph - N/A   Clear
2:58 PM 72.5 °F - 29.5 °F 20% 29.92 in 8.0 mi Calm Calm - N/A   Clear
3:58 PM 74.3 °F - 30.0 °F 20% 29.90 in 9.0 mi WNW 5.8 mph - N/A   Clear
4:58 PM 73.8 °F - 28.9 °F 19% 29.89 in 8.0 mi South 6.9 mph - N/A   Clear
5:58 PM 74.5 °F - 27.3 °F 17% 29.88 in 7.0 mi SSE 5.8 mph - N/A   Clear
6:58 PM 73.4 °F - 27.3 °F 18% 29.87 in 7.0 mi South 4.6 mph - N/A   Clear
7:58 PM 66.7 °F - 31.8 °F 27% 29.88 in 7.0 mi WSW 6.9 mph - N/A   Clear
8:58 PM 64.8 °F - 42.3 °F 44% 29.90 in 9.0 mi WSW 13.8 mph - N/A   Clear
9:58 PM 62.4 °F - 41.9 °F 47% 29.92 in 9.0 mi West 12.7 mph - N/A   Clear
10:58 PM 61.0 °F - 41.5 °F 49% 29.96 in 10.0 mi South 5.8 mph - N/A   Clear
11:58 PM 56.8 °F - 43.9 °F 62% 29.96 in 10.0 mi SSW 10.4 mph - N/A   Clear